Location: Aulnoy
(48.8410°N, 3.0967°E)
Time: 08:11:36
(UTC+00:00)

Cosmos 540 Rocket - Visible Passes

Search period start: 24 September 2023 00:00
Search period end: 04 October 2023 00:00
Orbit: 740 x 750 km, 74.1° (Epoch: 24 September)

Date Brightness Start Highest point End Pass type
(mag) Time Alt. Az. Time Alt. Az. Time Alt. Az.
24 Sep 5.6 20:14:55 10° NNE 20:17:14 14° NE 20:17:14 14° NE visible
24 Sep 5.5 21:55:03 10° NNW 21:57:01 23° NNW 21:57:01 23° NNW visible
25 Sep 5.2 21:11:18 10° N 21:13:47 25° N 21:13:47 25° N visible
25 Sep 6.2 22:53:01 10° NW 22:53:34 13° NW 22:53:34 13° NW visible
26 Sep 5.2 20:27:46 10° N 20:30:35 21° NNE 20:30:35 21° NNE visible
26 Sep 5.8 22:08:48 10° NNW 22:10:22 20° NNW 22:10:22 20° NNW visible
27 Sep 5.4 19:44:35 10° N 19:47:24 15° NE 19:47:24 15° NE visible
27 Sep 5.2 21:24:50 10° NNW 21:27:11 27° NNW 21:27:11 27° NNW visible
28 Sep 4.9 20:41:04 10° NNW 20:44:01 29° NNE 20:44:01 29° NNE visible
28 Sep 6.1 22:22:51 10° NW 22:23:47 15° NW 22:23:47 15° NW visible
29 Sep 4.9 19:57:30 10° N 20:00:52 23° NE 20:00:52 23° NE visible
29 Sep 5.5 21:38:36 10° NNW 21:40:38 24° NW 21:40:38 24° NW visible
30 Sep 5.3 19:14:15 10° N 19:17:16 15° NE 19:17:44 15° NE visible
30 Sep 4.8 20:54:36 10° NNW 20:57:31 34° NNW 20:57:31 34° NNW visible
01 Oct 4.4 20:10:49 10° NNW 20:14:25 36° NNE 20:14:25 36° NNE visible
01 Oct 5.9 21:52:42 10° NW 21:54:12 18° NW 21:54:12 18° NW visible
02 Oct 4.6 19:27:14 10° N 19:31:21 26° NE 19:31:21 26° NE visible
02 Oct 5.1 21:08:24 10° NNW 21:11:08 31° NW 21:11:08 31° NW visible
03 Oct 5.1 18:43:55 10° N 18:47:06 16° NE 18:48:18 15° ENE visible
03 Oct 4.2 20:24:23 10° NNW 20:28:05 48° NNW 20:28:05 48° NNW visible
03 Oct 6.3 22:07:33 10° WNW 22:07:52 11° WNW 22:07:52 11° WNW visible
